Terminal Aerodrome Forecast
Issued by NWS

Home | Current Version | Previous Version | Graphics & Text | Print | Product List | Glossary Off
Versions: 1 2 3 4 5 6 7 8 9 10 11 12 13 14 15 16 17 18 19 20 21 22 23 24 25 26 27 28 29 30 31 32 33 34 35 36 37 38 39 40 41 42 43 44 45

000
FTUS43 KDDC 252329
TAFGCK
TAF
KGCK 252329Z 2600/2624 08008KT P6SM FEW080
     FM260400 08012KT P6SM SKC
     FM260700 07012G18KT 4SM BR OVC007=

USA.gov is the U.S. government's official web portal to all federal, state and local government web resources and services.